AAL2635 MMSD-KLAX

Flight info

Callsign AAL2635
Flight time 2h 26m
Altitude 34000
Route ANEG1A ANEGO UL312 TAGMO UT50 ASUTA DCT AMMOR OLAAA2
Aircraft A321/M-V/N

Departure

Time 2026-04-22 01:56
Airport Los Cabos International Airport (MMSD)

Arrival

Time 2026-04-22 04:22
Airport Los Angeles International Airport (KLAX)
Time Latitude Longitude Altitude Speed Heading
2026-04-22 01:35 23.15821 -109.71796 373 ft 0 kts 84°
2026-04-22 01:45 23.15821 -109.71799 373 ft 2 kts 84°
2026-04-22 01:45 23.15818 -109.71827 373 ft 4 kts 76°
2026-04-22 01:46 23.15808 -109.71850 373 ft 4 kts 25°
2026-04-22 01:46 23.15787 -109.71852 372 ft 4 kts 353°
2026-04-22 01:46 23.15776 -109.71850 372 ft 1 kts 353°
2026-04-22 01:50 23.15783 -109.71851 372 ft 3 kts 353°
2026-04-22 01:50 23.15812 -109.71855 373 ft 6 kts 353°
2026-04-22 01:50 23.15852 -109.71879 374 ft 8 kts 302°
2026-04-22 01:51 23.15879 -109.71942 375 ft 11 kts 329°
2026-04-22 01:51 23.15960 -109.71956 376 ft 13 kts 354°
2026-04-22 01:51 23.16059 -109.71967 378 ft 15 kts 354°
2026-04-22 01:51 23.16173 -109.71979 381 ft 18 kts 355°
2026-04-22 01:52 23.16299 -109.71991 384 ft 18 kts 354°
2026-04-22 01:52 23.16418 -109.72005 386 ft 16 kts 353°
2026-04-22 01:52 23.16527 -109.72018 389 ft 15 kts 353°
2026-04-22 01:52 23.16611 -109.72048 390 ft 9 kts 290°
2026-04-22 01:53 23.16613 -109.72066 390 ft 0 kts 272°
2026-04-22 01:53 23.16613 -109.72068 390 ft 1 kts 272°
2026-04-22 01:53 23.16613 -109.72096 390 ft 7 kts 266°
2026-04-22 01:54 23.16591 -109.72174 391 ft 13 kts 228°
2026-04-22 01:54 23.16548 -109.72216 391 ft 5 kts 219°
2026-04-22 01:54 23.16512 -109.72226 390 ft 7 kts 180°
2026-04-22 01:54 23.16498 -109.72225 389 ft 0 kts 173°
2026-04-22 01:55 23.16494 -109.72224 389 ft 3 kts 173°
2026-04-22 01:55 23.16328 -109.72205 385 ft 57 kts 173°
2026-04-22 01:55 23.15702 -109.72132 371 ft 122 kts 174°
2026-04-22 01:55 23.14677 -109.72016 363 ft 171 kts 173°
2026-04-22 01:56 23.13522 -109.71896 1025 ft 162 kts 173°
2026-04-22 01:56 23.12403 -109.71788 1642 ft 163 kts 172°
2026-04-22 01:56 23.11222 -109.71651 2047 ft 181 kts 173°
2026-04-22 01:56 23.09927 -109.71497 2528 ft 189 kts 173°
2026-04-22 01:57 23.08598 -109.71340 3127 ft 186 kts 174°
2026-04-22 01:57 23.07397 -109.71199 4081 ft 162 kts 175°
2026-04-22 01:57 23.06312 -109.71072 4769 ft 159 kts 175°
2026-04-22 01:57 23.05128 -109.70967 5020 ft 181 kts 183°
2026-04-22 01:58 23.03842 -109.71318 5244 ft 203 kts 207°
2026-04-22 01:58 23.02742 -109.72361 5382 ft 221 kts 235°
2026-04-22 01:58 23.02219 -109.73984 5481 ft 242 kts 265°
2026-04-22 01:58 23.02602 -109.75808 5683 ft 259 kts 298°
2026-04-22 01:59 23.03709 -109.77377 6092 ft 265 kts 306°
2026-04-22 01:59 23.04875 -109.79008 6385 ft 280 kts 304°
2026-04-22 01:59 23.06051 -109.80717 6903 ft 284 kts 304°
2026-04-22 01:59 23.07231 -109.82449 7509 ft 286 kts 303°
2026-04-22 02:00 23.08417 -109.84182 8161 ft 286 kts 303°
2026-04-22 02:00 23.09606 -109.85915 8838 ft 286 kts 303°
2026-04-22 02:00 23.10783 -109.87624 9447 ft 287 kts 303°
2026-04-22 02:00 23.11988 -109.89356 10025 ft 288 kts 304°
2026-04-22 02:01 23.13508 -109.90811 10525 ft 298 kts 324°
2026-04-22 02:01 23.15280 -109.91993 11039 ft 300 kts 324°
2026-04-22 02:01 23.17072 -109.93173 11555 ft 302 kts 324°
2026-04-22 02:01 23.18877 -109.94360 12100 ft 305 kts 325°
2026-04-22 02:02 23.20698 -109.95560 12602 ft 307 kts 325°
2026-04-22 02:02 23.22528 -109.96771 13146 ft 309 kts 325°
2026-04-22 02:02 23.24373 -109.97991 13670 ft 312 kts 325°
2026-04-22 02:02 23.26231 -109.99223 14154 ft 314 kts 325°
2026-04-22 02:03 23.28099 -110.00467 14638 ft 316 kts 325°
2026-04-22 02:03 23.29975 -110.01718 15111 ft 317 kts 325°
2026-04-22 02:03 23.31857 -110.02973 15584 ft 318 kts 325°
2026-04-22 02:03 23.33748 -110.04233 16077 ft 319 kts 325°
2026-04-22 02:04 23.37533 -110.06756 17023 ft 322 kts 325°
2026-04-22 02:04 23.39452 -110.08031 17529 ft 324 kts 325°
2026-04-22 02:04 23.41382 -110.09312 17998 ft 325 kts 326°
2026-04-22 02:05 23.43317 -110.10596 18440 ft 327 kts 326°
2026-04-22 02:05 23.45262 -110.11890 18861 ft 328 kts 325°
2026-04-22 02:05 23.47215 -110.13190 19257 ft 330 kts 325°
2026-04-22 02:05 23.49178 -110.14499 19645 ft 332 kts 324°
2026-04-22 02:06 23.51150 -110.15812 20045 ft 333 kts 324°
2026-04-22 02:06 23.53128 -110.17137 20443 ft 334 kts 323°
2026-04-22 02:06 23.54928 -110.18716 20817 ft 332 kts 314°
2026-04-22 02:06 23.56607 -110.20449 21202 ft 333 kts 312°
2026-04-22 02:07 23.58248 -110.22243 21592 ft 334 kts 311°
2026-04-22 02:07 23.59870 -110.24055 21963 ft 335 kts 311°
2026-04-22 02:07 23.61505 -110.25877 22324 ft 337 kts 311°
2026-04-22 02:07 23.63156 -110.27697 22696 ft 339 kts 311°
2026-04-22 02:08 23.64827 -110.29522 23065 ft 341 kts 312°
2026-04-22 02:08 23.66512 -110.31352 23417 ft 343 kts 312°
2026-04-22 02:08 23.68212 -110.33191 23753 ft 345 kts 312°
2026-04-22 02:08 23.69916 -110.35037 24067 ft 346 kts 312°
2026-04-22 02:09 23.71625 -110.36886 24396 ft 346 kts 312°
2026-04-22 02:09 23.73342 -110.38739 24725 ft 347 kts 312°
2026-04-22 02:09 23.75059 -110.40595 25058 ft 348 kts 312°
2026-04-22 02:09 23.76753 -110.42432 25384 ft 348 kts 312°
2026-04-22 02:10 23.78475 -110.44301 25714 ft 349 kts 312°
2026-04-22 02:10 23.80223 -110.46198 26045 ft 350 kts 312°
2026-04-22 02:10 23.81946 -110.48074 26373 ft 351 kts 311°
2026-04-22 02:10 23.83653 -110.49933 26699 ft 351 kts 311°
2026-04-22 02:11 23.85384 -110.51819 27025 ft 352 kts 311°
2026-04-22 02:11 23.87120 -110.53712 27348 ft 353 kts 311°
2026-04-22 02:11 23.88859 -110.55607 27676 ft 354 kts 311°
2026-04-22 02:11 23.90633 -110.57480 28021 ft 355 kts 314°
2026-04-22 02:12 23.92488 -110.59274 28343 ft 357 kts 316°
2026-04-22 02:12 23.94395 -110.61022 28667 ft 358 kts 316°
2026-04-22 02:12 23.96320 -110.62754 28988 ft 359 kts 316°
2026-04-22 02:12 23.98253 -110.64496 29303 ft 360 kts 316°
2026-04-22 02:13 24.00182 -110.66247 29604 ft 361 kts 316°
2026-04-22 02:13 24.02108 -110.68014 29909 ft 362 kts 316°
2026-04-22 02:13 24.04028 -110.69793 30186 ft 362 kts 316°
2026-04-22 02:13 24.05949 -110.71583 30419 ft 363 kts 315°
2026-04-22 02:14 24.07873 -110.73380 30645 ft 365 kts 315°
2026-04-22 02:14 24.09805 -110.75185 30866 ft 366 kts 315°
2026-04-22 02:14 24.11741 -110.76995 31097 ft 367 kts 315°
2026-04-22 02:14 24.13689 -110.78815 31289 ft 368 kts 315°
2026-04-22 02:15 24.15641 -110.80636 31497 ft 370 kts 315°
2026-04-22 02:15 24.17605 -110.82464 31715 ft 371 kts 315°
2026-04-22 02:15 24.19570 -110.84294 31929 ft 372 kts 315°
2026-04-22 02:15 24.21543 -110.86132 32150 ft 373 kts 315°
2026-04-22 02:16 24.23522 -110.87977 32360 ft 374 kts 315°
2026-04-22 02:16 24.25503 -110.89828 32563 ft 375 kts 315°
2026-04-22 02:16 24.27493 -110.91688 32753 ft 376 kts 315°
2026-04-22 02:16 24.29490 -110.93557 32948 ft 378 kts 315°
2026-04-22 02:17 24.31493 -110.95431 33145 ft 379 kts 315°
2026-04-22 02:17 24.33501 -110.97310 33341 ft 380 kts 315°
2026-04-22 02:17 24.35518 -110.99195 33545 ft 381 kts 315°
2026-04-22 02:17 24.37537 -111.01084 33734 ft 382 kts 315°
2026-04-22 02:18 24.39535 -111.02959 33933 ft 383 kts 315°
2026-04-22 02:18 24.43599 -111.06777 34059 ft 385 kts 315°
2026-04-22 02:19 24.47660 -111.10586 34048 ft 384 kts 315°
2026-04-22 02:19 24.51724 -111.14402 34043 ft 384 kts 315°
2026-04-22 02:20 24.55779 -111.18212 34052 ft 383 kts 315°
2026-04-22 02:20 24.59829 -111.22019 34053 ft 383 kts 315°
2026-04-22 02:21 24.63876 -111.25832 34054 ft 383 kts 315°
2026-04-22 02:21 24.67898 -111.29630 34060 ft 384 kts 315°
2026-04-22 02:22 24.71954 -111.33449 34051 ft 383 kts 315°
2026-04-22 02:22 24.75985 -111.37250 34054 ft 382 kts 315°
2026-04-22 02:23 24.80009 -111.41062 34055 ft 381 kts 315°
2026-04-22 02:23 24.84041 -111.44872 34057 ft 381 kts 315°
2026-04-22 02:24 24.88068 -111.48673 34061 ft 381 kts 315°
2026-04-22 02:24 24.92096 -111.52493 34066 ft 382 kts 315°
2026-04-22 02:25 24.96114 -111.56312 34087 ft 382 kts 315°
2026-04-22 02:25 25.00141 -111.60136 34086 ft 382 kts 315°
2026-04-22 02:26 25.04142 -111.63930 34083 ft 382 kts 315°
2026-04-22 02:26 25.08163 -111.67755 34083 ft 381 kts 315°
2026-04-22 02:27 25.12177 -111.71581 34082 ft 381 kts 314°
2026-04-22 02:27 25.16192 -111.75410 34083 ft 381 kts 315°
2026-04-22 02:28 25.20212 -111.79232 34106 ft 381 kts 314°
2026-04-22 02:28 25.24204 -111.83032 34094 ft 380 kts 314°
2026-04-22 02:29 25.28201 -111.86858 34089 ft 380 kts 314°
2026-04-22 02:29 25.32702 -111.90006 34086 ft 390 kts 330°
2026-04-22 02:30 25.36860 -111.91969 34085 ft 390 kts 330°
2026-04-22 02:30 25.41853 -111.94339 34087 ft 390 kts 330°
2026-04-22 02:31 25.46845 -111.96713 34108 ft 390 kts 330°
2026-04-22 02:31 25.51836 -111.99084 34103 ft 390 kts 330°
2026-04-22 02:32 25.56824 -112.01462 34098 ft 390 kts 330°
2026-04-22 02:32 25.62623 -112.04238 34089 ft 390 kts 330°
2026-04-22 02:33 25.66802 -112.06238 34088 ft 390 kts 330°
2026-04-22 02:33 25.71801 -112.08626 34084 ft 390 kts 330°
2026-04-22 02:34 25.76749 -112.10994 34084 ft 390 kts 330°
2026-04-22 02:34 25.81735 -112.13383 34078 ft 390 kts 329°
2026-04-22 02:35 25.86721 -112.15778 34080 ft 390 kts 329°
2026-04-22 02:35 25.91702 -112.18168 34081 ft 390 kts 329°
2026-04-22 02:36 25.96682 -112.20569 34078 ft 390 kts 329°
2026-04-22 02:36 26.01656 -112.22962 34078 ft 389 kts 329°
2026-04-22 02:37 26.06630 -112.25359 34077 ft 389 kts 329°
2026-04-22 02:37 26.11601 -112.27758 34077 ft 389 kts 329°
2026-04-22 02:38 26.16540 -112.30135 34077 ft 389 kts 329°
2026-04-22 02:38 26.21515 -112.32537 34079 ft 390 kts 329°
2026-04-22 02:39 26.26491 -112.34946 34091 ft 390 kts 329°
2026-04-22 02:39 26.31471 -112.37353 34084 ft 390 kts 329°
2026-04-22 02:40 26.36440 -112.39762 34076 ft 390 kts 329°
2026-04-22 02:40 26.41413 -112.42172 34074 ft 390 kts 329°
2026-04-22 02:41 26.46384 -112.44581 34070 ft 389 kts 329°
2026-04-22 02:41 26.51352 -112.46995 34061 ft 389 kts 329°
2026-04-22 02:42 26.56317 -112.49415 34079 ft 389 kts 329°
2026-04-22 02:42 26.61280 -112.51826 34074 ft 389 kts 329°
2026-04-22 02:43 26.66245 -112.54242 34068 ft 389 kts 329°
2026-04-22 02:43 26.71212 -112.56668 34070 ft 389 kts 329°
2026-04-22 02:44 26.76169 -112.59086 34061 ft 389 kts 328°
2026-04-22 02:44 26.81100 -112.61499 34081 ft 390 kts 328°
2026-04-22 02:45 26.86100 -112.63947 34066 ft 389 kts 328°
2026-04-22 02:45 26.91039 -112.66365 34066 ft 390 kts 329°
2026-04-22 02:46 26.96023 -112.68793 34066 ft 390 kts 328°
2026-04-22 02:46 27.01000 -112.71237 34069 ft 390 kts 328°
2026-04-22 02:47 27.05973 -112.73688 34081 ft 390 kts 328°
2026-04-22 02:47 27.10947 -112.76134 34071 ft 390 kts 328°
2026-04-22 02:48 27.15924 -112.78574 34067 ft 390 kts 328°
2026-04-22 02:48 27.20863 -112.80995 34066 ft 390 kts 328°
2026-04-22 02:49 27.25830 -112.83447 34066 ft 390 kts 328°
2026-04-22 02:49 27.30797 -112.85898 34087 ft 390 kts 328°
2026-04-22 02:50 27.35764 -112.88351 34076 ft 390 kts 328°
2026-04-22 02:50 27.40737 -112.90811 34066 ft 390 kts 328°
2026-04-22 02:51 27.45710 -112.93275 34063 ft 391 kts 328°
2026-04-22 02:51 27.50669 -112.95727 34061 ft 391 kts 328°
2026-04-22 02:52 27.55654 -112.98194 34088 ft 392 kts 328°
2026-04-22 02:52 27.60651 -113.00674 34089 ft 392 kts 328°
2026-04-22 02:53 27.65649 -113.03162 34079 ft 392 kts 328°
2026-04-22 02:53 27.70638 -113.05644 34071 ft 392 kts 328°
2026-04-22 02:54 27.75633 -113.08129 34072 ft 392 kts 328°
2026-04-22 02:54 27.80599 -113.10602 34087 ft 392 kts 328°
2026-04-22 02:55 27.85597 -113.13089 34105 ft 392 kts 327°
2026-04-22 02:55 27.90592 -113.15583 34088 ft 392 kts 327°
2026-04-22 02:56 27.95588 -113.18082 34081 ft 393 kts 327°
2026-04-22 02:56 28.00586 -113.20584 34072 ft 393 kts 327°
2026-04-22 02:57 28.05580 -113.23080 34067 ft 392 kts 327°
2026-04-22 02:57 28.10577 -113.25586 34076 ft 393 kts 328°
2026-04-22 02:58 28.15576 -113.28092 34063 ft 393 kts 328°
2026-04-22 02:58 28.20582 -113.30594 34059 ft 393 kts 328°
2026-04-22 02:59 28.25549 -113.33095 34049 ft 393 kts 327°
2026-04-22 02:59 28.30549 -113.35623 34047 ft 393 kts 328°
2026-04-22 03:00 28.35555 -113.38142 34071 ft 394 kts 328°
2026-04-22 03:00 28.40568 -113.40668 34061 ft 394 kts 328°
2026-04-22 03:01 28.45578 -113.43201 34050 ft 394 kts 327°
2026-04-22 03:01 28.50584 -113.45734 34056 ft 393 kts 327°
2026-04-22 03:02 28.55587 -113.48261 34050 ft 393 kts 327°
2026-04-22 03:02 28.60586 -113.50789 34056 ft 393 kts 327°
2026-04-22 03:03 28.65574 -113.53322 34056 ft 393 kts 327°
2026-04-22 03:03 28.70530 -113.55830 34059 ft 393 kts 327°
2026-04-22 03:04 28.75515 -113.58359 34053 ft 392 kts 327°
2026-04-22 03:04 28.80504 -113.60908 34069 ft 394 kts 327°
2026-04-22 03:05 28.85517 -113.63455 34084 ft 395 kts 327°
2026-04-22 03:05 28.90539 -113.66012 34069 ft 395 kts 327°
2026-04-22 03:06 28.95563 -113.68574 34061 ft 395 kts 327°
2026-04-22 03:06 29.00587 -113.71141 34053 ft 396 kts 327°
2026-04-22 03:07 29.05611 -113.73711 34083 ft 396 kts 327°
2026-04-22 03:07 29.10642 -113.76289 34072 ft 397 kts 327°
2026-04-22 03:08 29.15650 -113.78857 34055 ft 397 kts 327°
2026-04-22 03:08 29.20700 -113.81444 34041 ft 398 kts 327°
2026-04-22 03:09 29.25751 -113.84037 34052 ft 398 kts 327°
2026-04-22 03:09 29.30814 -113.86638 34038 ft 399 kts 327°
2026-04-22 03:10 29.35892 -113.89249 34046 ft 400 kts 327°
2026-04-22 03:10 29.40970 -113.91871 34023 ft 401 kts 327°
2026-04-22 03:11 29.46063 -113.94498 34026 ft 402 kts 327°
2026-04-22 03:11 29.51164 -113.97134 34015 ft 402 kts 328°
2026-04-22 03:12 29.56264 -113.99762 34031 ft 402 kts 328°
2026-04-22 03:12 29.63884 -114.03703 34020 ft 402 kts 328°
2026-04-22 03:13 29.68992 -114.06352 34003 ft 403 kts 328°
2026-04-22 03:13 29.74103 -114.09004 33987 ft 403 kts 328°
2026-04-22 03:14 29.79223 -114.11660 33993 ft 404 kts 328°
2026-04-22 03:14 29.84353 -114.14321 33995 ft 405 kts 328°
2026-04-22 03:15 29.89484 -114.17000 33985 ft 405 kts 328°
2026-04-22 03:15 29.94590 -114.19662 33987 ft 406 kts 328°
2026-04-22 03:16 29.99732 -114.22350 33980 ft 406 kts 328°
2026-04-22 03:16 30.04882 -114.25042 34000 ft 407 kts 328°
2026-04-22 03:17 30.10039 -114.27740 34001 ft 407 kts 328°
2026-04-22 03:17 30.15195 -114.30434 33983 ft 407 kts 328°
2026-04-22 03:18 30.20349 -114.33137 33980 ft 406 kts 328°
2026-04-22 03:18 30.25499 -114.35840 33990 ft 406 kts 328°
2026-04-22 03:19 30.30650 -114.38550 33977 ft 407 kts 328°
2026-04-22 03:19 30.35810 -114.41264 33961 ft 408 kts 328°
2026-04-22 03:20 30.40949 -114.43971 33964 ft 408 kts 328°
2026-04-22 03:20 30.46129 -114.46689 33959 ft 409 kts 328°
2026-04-22 03:21 30.51323 -114.49420 33978 ft 410 kts 328°
2026-04-22 03:21 30.56514 -114.52167 33972 ft 410 kts 328°
2026-04-22 03:22 30.61714 -114.54920 33968 ft 411 kts 328°
2026-04-22 03:22 30.66920 -114.57679 33963 ft 411 kts 328°
2026-04-22 03:23 30.72122 -114.60446 33982 ft 411 kts 328°
2026-04-22 03:23 30.76453 -114.62751 33969 ft 412 kts 328°
2026-04-22 03:24 30.81680 -114.65524 33949 ft 413 kts 328°
2026-04-22 03:24 30.87755 -114.68755 33947 ft 413 kts 328°
2026-04-22 03:25 30.92140 -114.71092 33945 ft 414 kts 328°
2026-04-22 03:25 30.97371 -114.73887 33946 ft 414 kts 328°
2026-04-22 03:26 31.02572 -114.76662 33952 ft 414 kts 328°
2026-04-22 03:26 31.07807 -114.79454 33951 ft 414 kts 328°
2026-04-22 03:27 31.13037 -114.82256 33949 ft 414 kts 328°
2026-04-22 03:27 31.18272 -114.85064 33968 ft 414 kts 328°
2026-04-22 03:28 31.23514 -114.87884 33963 ft 414 kts 328°
2026-04-22 03:28 31.28753 -114.90698 33956 ft 415 kts 328°
2026-04-22 03:29 31.34012 -114.93523 33952 ft 415 kts 328°
2026-04-22 03:29 31.39228 -114.96333 33951 ft 415 kts 328°
2026-04-22 03:30 31.44480 -114.99168 33970 ft 416 kts 328°
2026-04-22 03:30 31.49771 -115.02024 33985 ft 416 kts 328°
2026-04-22 03:31 31.54997 -115.04851 33974 ft 416 kts 328°
2026-04-22 03:31 31.60261 -115.07703 33970 ft 417 kts 328°
2026-04-22 03:32 31.65522 -115.10556 33969 ft 417 kts 329°
2026-04-22 03:32 31.70791 -115.13414 33966 ft 417 kts 329°
2026-04-22 03:33 31.76063 -115.16278 33971 ft 417 kts 329°
2026-04-22 03:33 31.81331 -115.19141 33964 ft 417 kts 329°
2026-04-22 03:34 31.86597 -115.22011 33973 ft 417 kts 329°
2026-04-22 03:34 31.91860 -115.24884 33968 ft 416 kts 329°
2026-04-22 03:35 31.97110 -115.27751 33972 ft 416 kts 329°
2026-04-22 03:35 32.02361 -115.30618 33966 ft 416 kts 329°
2026-04-22 03:36 32.07575 -115.33470 33987 ft 416 kts 329°
2026-04-22 03:36 32.12821 -115.36348 33977 ft 415 kts 328°
2026-04-22 03:37 32.18059 -115.39227 33988 ft 415 kts 328°
2026-04-22 03:37 32.23298 -115.42104 33984 ft 415 kts 328°
2026-04-22 03:38 32.28524 -115.44977 33974 ft 414 kts 328°
2026-04-22 03:38 32.33763 -115.47870 33976 ft 415 kts 328°
2026-04-22 03:39 32.39004 -115.50762 33952 ft 416 kts 328°
2026-04-22 03:39 32.44221 -115.53647 33988 ft 416 kts 328°
2026-04-22 03:40 32.49504 -115.56573 33989 ft 416 kts 328°
2026-04-22 03:40 32.54721 -115.59465 33988 ft 417 kts 328°
2026-04-22 03:41 32.59983 -115.62379 33981 ft 418 kts 328°
2026-04-22 03:41 32.64869 -115.65913 34025 ft 403 kts 310°
2026-04-22 03:42 32.68265 -115.70994 34019 ft 388 kts 295°
2026-04-22 03:42 32.71124 -115.76430 33809 ft 387 kts 296°
2026-04-22 03:43 32.72535 -115.79091 33512 ft 384 kts 295°
2026-04-22 03:43 32.73951 -115.81760 33167 ft 380 kts 295°
2026-04-22 03:43 32.75349 -115.84403 32815 ft 377 kts 295°
2026-04-22 03:43 32.76732 -115.87027 32435 ft 374 kts 295°
2026-04-22 03:44 32.78106 -115.89643 32067 ft 371 kts 295°
2026-04-22 03:44 32.79468 -115.92236 31704 ft 369 kts 295°
2026-04-22 03:44 32.80821 -115.94821 31328 ft 367 kts 294°
2026-04-22 03:44 32.82137 -115.97391 31001 ft 362 kts 293°
2026-04-22 03:45 32.83416 -115.99942 30646 ft 357 kts 293°
2026-04-22 03:45 32.84670 -116.02470 30297 ft 352 kts 293°
2026-04-22 03:45 32.85907 -116.04972 29917 ft 349 kts 293°
2026-04-22 03:45 32.87141 -116.07458 29513 ft 347 kts 293°
2026-04-22 03:46 32.88368 -116.09920 29115 ft 345 kts 293°
2026-04-22 03:46 32.89591 -116.12370 28714 ft 343 kts 293°
2026-04-22 03:46 32.90810 -116.14810 28332 ft 341 kts 293°
2026-04-22 03:46 32.92022 -116.17233 27938 ft 340 kts 293°
2026-04-22 03:47 32.93211 -116.19618 27548 ft 339 kts 293°
2026-04-22 03:47 32.94410 -116.22028 27173 ft 337 kts 293°
2026-04-22 03:47 32.95603 -116.24422 26788 ft 336 kts 293°
2026-04-22 03:47 32.96796 -116.26813 26393 ft 335 kts 294°
2026-04-22 03:48 32.97991 -116.29211 26023 ft 337 kts 294°
2026-04-22 03:48 32.99189 -116.31617 25661 ft 337 kts 294°
2026-04-22 03:48 33.00381 -116.34013 25305 ft 336 kts 294°
2026-04-22 03:48 33.01567 -116.36398 24943 ft 334 kts 295°
2026-04-22 03:49 33.02752 -116.38780 24612 ft 333 kts 295°
2026-04-22 03:49 33.03932 -116.41158 24277 ft 332 kts 295°
2026-04-22 03:49 33.05053 -116.43545 23984 ft 328 kts 291°
2026-04-22 03:49 33.06047 -116.45986 23688 ft 326 kts 289°
2026-04-22 03:50 33.06954 -116.48414 23362 ft 324 kts 288°
2026-04-22 03:50 33.07853 -116.50902 23027 ft 323 kts 288°
2026-04-22 03:50 33.08726 -116.53328 22677 ft 322 kts 288°
2026-04-22 03:50 33.09616 -116.55775 22340 ft 321 kts 289°
2026-04-22 03:51 33.10522 -116.58237 22015 ft 318 kts 288°
2026-04-22 03:51 33.11403 -116.60612 21691 ft 315 kts 289°
2026-04-22 03:51 33.12293 -116.62986 21380 ft 313 kts 289°
2026-04-22 03:51 33.13160 -116.65351 21056 ft 309 kts 285°
2026-04-22 03:52 33.13628 -116.67810 20739 ft 303 kts 276°
2026-04-22 03:52 33.13990 -116.70284 20418 ft 301 kts 276°
2026-04-22 03:52 33.14351 -116.72739 20099 ft 300 kts 276°
2026-04-22 03:52 33.14712 -116.75190 19810 ft 299 kts 276°
2026-04-22 03:53 33.15071 -116.77630 19500 ft 298 kts 276°
2026-04-22 03:53 33.15431 -116.80065 19195 ft 297 kts 276°
2026-04-22 03:53 33.15788 -116.82493 18897 ft 297 kts 276°
2026-04-22 03:53 33.16141 -116.84911 18601 ft 295 kts 276°
2026-04-22 03:54 33.16495 -116.87322 18310 ft 293 kts 276°
2026-04-22 03:54 33.16843 -116.89704 17968 ft 291 kts 276°
2026-04-22 03:54 33.17191 -116.92085 17628 ft 290 kts 276°
2026-04-22 03:54 33.17533 -116.94450 17295 ft 289 kts 276°
2026-04-22 03:55 33.17872 -116.96811 16967 ft 287 kts 276°
2026-04-22 03:55 33.18210 -116.99159 16645 ft 286 kts 276°
2026-04-22 03:55 33.18548 -117.01491 16322 ft 285 kts 276°
2026-04-22 03:55 33.18885 -117.03813 16000 ft 283 kts 276°
2026-04-22 03:56 33.19221 -117.06131 15682 ft 282 kts 276°
2026-04-22 03:56 33.19554 -117.08433 15373 ft 280 kts 276°
2026-04-22 03:56 33.19884 -117.10718 15063 ft 279 kts 276°
2026-04-22 03:56 33.20213 -117.13001 14760 ft 278 kts 276°
2026-04-22 03:57 33.20534 -117.15240 14455 ft 277 kts 276°
2026-04-22 03:57 33.20859 -117.17506 14151 ft 276 kts 276°
2026-04-22 03:57 33.21181 -117.19763 13850 ft 276 kts 276°
2026-04-22 03:57 33.21502 -117.22018 13512 ft 275 kts 276°
2026-04-22 03:58 33.21822 -117.24268 13180 ft 274 kts 276°
2026-04-22 03:58 33.22142 -117.26508 12848 ft 273 kts 276°
2026-04-22 03:58 33.22461 -117.28740 12520 ft 272 kts 276°
2026-04-22 03:58 33.22779 -117.30962 12196 ft 271 kts 276°
2026-04-22 03:59 33.23099 -117.33171 11998 ft 270 kts 276°
2026-04-22 03:59 33.23436 -117.35378 11994 ft 271 kts 277°
2026-04-22 03:59 33.23784 -117.37593 11998 ft 271 kts 277°
2026-04-22 03:59 33.24133 -117.39810 12001 ft 272 kts 277°
2026-04-22 04:00 33.24486 -117.42029 12002 ft 272 kts 277°
2026-04-22 04:00 33.24836 -117.44240 11997 ft 272 kts 277°
2026-04-22 04:00 33.25186 -117.46457 12002 ft 271 kts 277°
2026-04-22 04:00 33.25534 -117.48673 12004 ft 272 kts 277°
2026-04-22 04:01 33.25876 -117.50894 12003 ft 272 kts 277°
2026-04-22 04:01 33.26292 -117.53105 11997 ft 275 kts 287°
2026-04-22 04:01 33.27228 -117.55128 12011 ft 281 kts 297°
2026-04-22 04:01 33.28283 -117.57091 12001 ft 281 kts 297°
2026-04-22 04:02 33.29343 -117.59049 11999 ft 281 kts 297°
2026-04-22 04:02 33.30405 -117.61010 11996 ft 281 kts 297°
2026-04-22 04:02 33.31464 -117.62968 11997 ft 281 kts 297°
2026-04-22 04:02 33.32523 -117.64928 12000 ft 280 kts 297°
2026-04-22 04:03 33.33579 -117.66888 12001 ft 280 kts 297°
2026-04-22 04:03 33.34632 -117.68852 11996 ft 280 kts 297°
2026-04-22 04:03 33.35685 -117.70813 11996 ft 280 kts 297°
2026-04-22 04:03 33.36739 -117.72777 11998 ft 281 kts 297°
2026-04-22 04:04 33.37791 -117.74742 11988 ft 281 kts 297°
2026-04-22 04:04 33.38830 -117.76677 11989 ft 281 kts 297°
2026-04-22 04:04 33.39886 -117.78641 11994 ft 281 kts 297°
2026-04-22 04:04 33.40775 -117.80686 11922 ft 272 kts 281°
2026-04-22 04:05 33.40874 -117.82879 11571 ft 262 kts 256°
2026-04-22 04:05 33.40093 -117.84813 11178 ft 261 kts 230°
2026-04-22 04:05 33.38604 -117.86061 10803 ft 268 kts 204°
2026-04-22 04:05 33.36729 -117.86322 10410 ft 280 kts 177°
2026-04-22 04:06 33.34858 -117.85560 10027 ft 289 kts 161°
2026-04-22 04:06 33.32979 -117.84871 9618 ft 276 kts 185°
2026-04-22 04:06 33.31209 -117.85422 9228 ft 260 kts 217°
2026-04-22 04:06 33.29980 -117.86946 8803 ft 256 kts 243°
2026-04-22 04:07 33.29544 -117.88983 8382 ft 257 kts 270°
2026-04-22 04:07 33.29999 -117.91051 8053 ft 261 kts 296°
2026-04-22 04:07 33.31197 -117.92713 8024 ft 273 kts 320°
2026-04-22 04:07 33.32965 -117.93622 8024 ft 284 kts 343°
2026-04-22 04:08 33.34911 -117.94103 8016 ft 286 kts 344°
2026-04-22 04:08 33.36865 -117.94563 8018 ft 286 kts 344°
2026-04-22 04:08 33.38821 -117.95020 8017 ft 286 kts 344°
2026-04-22 04:08 33.40777 -117.95478 8033 ft 287 kts 344°
2026-04-22 04:09 33.42735 -117.95939 8019 ft 287 kts 344°
2026-04-22 04:09 33.44695 -117.96404 8017 ft 287 kts 344°
2026-04-22 04:09 33.46654 -117.96869 8016 ft 287 kts 344°
2026-04-22 04:09 33.48589 -117.97329 8011 ft 287 kts 344°
2026-04-22 04:10 33.50550 -117.97796 8011 ft 287 kts 344°
2026-04-22 04:10 33.52508 -117.98264 8012 ft 287 kts 343°
2026-04-22 04:10 33.54468 -117.98736 8011 ft 287 kts 343°
2026-04-22 04:10 33.56426 -117.99208 8008 ft 287 kts 344°
2026-04-22 04:11 33.58380 -117.99677 7921 ft 286 kts 344°
2026-04-22 04:11 33.60331 -118.00144 7773 ft 286 kts 344°
2026-04-22 04:11 33.62277 -118.00609 7625 ft 285 kts 344°
2026-04-22 04:11 33.64215 -118.01075 7486 ft 283 kts 344°
2026-04-22 04:12 33.66141 -118.01539 7305 ft 281 kts 344°
2026-04-22 04:12 33.68009 -118.01984 7094 ft 263 kts 344°
2026-04-22 04:12 33.69732 -118.02390 6942 ft 244 kts 344°
2026-04-22 04:12 33.71338 -118.02883 6739 ft 234 kts 340°
2026-04-22 04:13 33.72896 -118.03404 6547 ft 231 kts 340°
2026-04-22 04:13 33.73921 -118.03760 6413 ft 230 kts 339°
2026-04-22 04:13 33.75442 -118.04333 6196 ft 228 kts 338°
2026-04-22 04:13 33.76938 -118.04946 5947 ft 226 kts 336°
2026-04-22 04:14 33.78410 -118.05588 5584 ft 224 kts 336°
2026-04-22 04:14 33.79868 -118.06251 5241 ft 223 kts 336°
2026-04-22 04:14 33.81311 -118.06903 4975 ft 220 kts 340°
2026-04-22 04:14 33.82822 -118.07238 4616 ft 221 kts 350°
2026-04-22 04:15 33.84350 -118.07431 4252 ft 220 kts 351°
2026-04-22 04:15 33.85865 -118.07601 3916 ft 216 kts 351°
2026-04-22 04:15 33.87326 -118.07901 3609 ft 210 kts 343°
2026-04-22 04:15 33.88733 -118.08362 3602 ft 214 kts 341°
2026-04-22 04:16 33.90162 -118.08879 3595 ft 214 kts 335°
2026-04-22 04:16 33.92427 -118.11085 3597 ft 207 kts 308°
2026-04-22 04:16 33.93310 -118.12353 3587 ft 192 kts 308°
2026-04-22 04:17 33.94157 -118.13576 3604 ft 189 kts 308°
2026-04-22 04:17 33.94984 -118.14791 3594 ft 182 kts 304°
2026-04-22 04:17 33.95537 -118.16056 3585 ft 161 kts 288°
2026-04-22 04:17 33.95732 -118.17355 3523 ft 158 kts 270°
2026-04-22 04:18 33.95670 -118.18673 3352 ft 158 kts 266°
2026-04-22 04:18 33.95563 -118.20009 3143 ft 160 kts 265°
2026-04-22 04:18 33.95441 -118.21335 2919 ft 159 kts 265°
2026-04-22 04:18 33.95314 -118.22646 2710 ft 160 kts 264°
2026-04-22 04:19 33.95182 -118.23974 2498 ft 159 kts 264°
2026-04-22 04:19 33.95050 -118.25294 2281 ft 158 kts 264°
2026-04-22 04:19 33.94918 -118.26601 2077 ft 157 kts 265°
2026-04-22 04:19 33.94789 -118.27873 1853 ft 145 kts 265°
2026-04-22 04:20 33.94670 -118.29051 1664 ft 138 kts 265°
2026-04-22 04:20 33.94556 -118.30177 1481 ft 136 kts 264°
2026-04-22 04:20 33.94443 -118.31301 1300 ft 135 kts 264°
2026-04-22 04:20 33.94329 -118.32426 1119 ft 136 kts 264°
2026-04-22 04:21 33.94215 -118.33555 934 ft 136 kts 263°
2026-04-22 04:21 33.94099 -118.34684 734 ft 136 kts 263°
2026-04-22 04:21 33.93980 -118.35814 538 ft 135 kts 263°
2026-04-22 04:21 33.93869 -118.36940 388 ft 135 kts 263°
2026-04-22 04:22 33.93763 -118.38042 216 ft 133 kts 263°
2026-04-22 04:22 33.93655 -118.39076 125 ft 101 kts 263°
2026-04-22 04:22 33.93602 -118.39625 126 ft 45 kts 263°
2026-04-22 04:22 33.93631 -118.39873 123 ft 25 kts 288°
2026-04-22 04:23 33.93665 -118.40020 123 ft 9 kts 271°
2026-04-22 04:23 33.93661 -118.40087 125 ft 8 kts 265°
2026-04-22 04:23 33.93655 -118.40155 126 ft 9 kts 263°
2026-04-22 04:23 33.93647 -118.40229 124 ft 9 kts 263°
2026-04-22 04:24 33.93635 -118.40354 124 ft 22 kts 263°
2026-04-22 04:24 33.93615 -118.40544 126 ft 22 kts 263°
2026-04-22 04:24 33.93596 -118.40721 126 ft 21 kts 262°
2026-04-22 04:24 33.93621 -118.40870 122 ft 14 kts 305°
2026-04-22 04:25 33.93711 -118.40902 125 ft 17 kts 352°
2026-04-22 04:25 33.93817 -118.40918 123 ft 14 kts 352°
2026-04-22 04:25 33.93869 -118.40887 124 ft 9 kts 79°
2026-04-22 04:25 33.93895 -118.40814 126 ft 9 kts 33°
2026-04-22 04:26 33.93965 -118.40815 122 ft 11 kts 353°
2026-04-22 04:26 33.94006 -118.40821 124 ft 0 kts 353°
2026-04-22 04:26 33.94031 -118.40825 124 ft 7 kts 352°
2026-04-22 04:26 33.94078 -118.40812 122 ft 7 kts 51°
2026-04-22 04:27 33.94097 -118.40766 125 ft 3 kts 64°
2026-04-22 04:27 33.94103 -118.40750 122 ft 0 kts 65°